Change the Weather History Date:

Thursday, February 21, 2013

  Actual Average Record
Temperature  
Mean Temperature 19 °F 37 °F  
Max Temperature 24 °F 48 °F 80 °F (1977)
Min Temperature 13 °F 26 °F -3 °F (1939)
Degree Days  
Heating Degree Days 46 28  
Month to date heating degree days 594 641  
Since 1 July heating degree days 3359 3657  
Cooling Degree Days 0 0  
Month to date cooling degree days 0 0  
Year to date cooling degree days 0 0  
Moisture  
Dew Point 18 °F    
Average Humidity 83    
Maximum Humidity 92    
Minimum Humidity 74    
Precipitation  
Precipitation T in 0.05 in 0.90 in (1971)
Month to date precipitation 1.18 0.84  
Year to date precipitation 2.06 1.47  
Sea Level Pressure  
Sea Level Pressure 29.88 in    
Wind  
Wind Speed 12 mph (NNE)    
Max Wind Speed 17 mph    
Max Gust Speed 22 mph    
Visibility 2 miles    
Events Fog , Snow    
T = Trace of Precipitation, MM = Missing Value Source: NWS Daily Summary

Daily Weather History Graph

Daily Weather History Graph

Search for Another Location

Airport or City:

Trip Planner

Search our weather history database for the weather conditions in past years. The results will help you decide how hot, cold, wet, or windy it might be!

Date:

Astronomy

Feb. 21, 2013 Rise Set
Actual Time 7:13 AM CST 6:15 PM CST
Civil Twilight 6:46 AM CST 6:42 PM CST
Nautical Twilight 6:15 AM CST 7:13 PM CST
Astronomical Twilight 5:44 AM CST 7:44 PM CST
Moon 2:32 PM CST (2/21) 4:17 AM CST (2/21)
Length of Visible Light 11h 55m
Length of Day
11h 01m
Waxing Gibbous, 84% of the Moon is Illuminated
Feb 21
Waxing Gibbous
Feb 25
Full
Mar 4
Last Quarter
Mar 11
New
Mar 19
First Quarter

Hourly Weather History & Observations

Time (CST) Temp. Windchill Dew Point Humidity Pressure Visibility Wind Dir Wind Speed Gust Speed Precip Events Conditions
12:08 AM 23.0 °F 12.4 °F 19.4 °F 86% 30.06 in 3.0 mi ENE 10.4 mph - 0.00 in Snow Light Snow
12:15 AM 23.0 °F 12.4 °F 17.6 °F 80% 30.05 in 3.0 mi ENE 10.4 mph - 0.00 in Snow Light Snow
12:53 AM 23.0 °F 13.9 °F 18.0 °F 81% 30.09 in 2.0 mi ENE 8.1 mph - 0.00 in Snow Light Snow
1:07 AM 23.0 °F 13.9 °F 17.6 °F 80% 30.05 in 4.0 mi ENE 8.1 mph - 0.00 in Snow Light Snow
1:31 AM 23.0 °F 13.9 °F 17.6 °F 80% 30.03 in 2.0 mi East 8.1 mph - 0.00 in Snow Light Snow
1:53 AM 24.1 °F 13.7 °F 18.0 °F 77% 30.06 in 2.0 mi East 10.4 mph - 0.00 in Snow Light Snow
2:10 AM 23.0 °F 11.7 °F 19.4 °F 86% 30.01 in 1.5 mi East 11.5 mph - 0.00 in Snow Light Snow
2:53 AM 23.0 °F 11.7 °F 19.9 °F 88% 30.01 in 1.2 mi ENE 11.5 mph - 0.00 in Snow Light Snow
3:12 AM 24.8 °F 14.6 °F 19.4 °F 80% 29.96 in 2.5 mi East 10.4 mph 19.6 mph 0.00 in Snow Light Snow
3:21 AM 24.8 °F 13.4 °F 19.4 °F 80% 29.95 in 2.5 mi East 12.7 mph 19.6 mph 0.00 in Snow Light Snow
3:34 AM 24.8 °F 12.9 °F 19.4 °F 80% 29.94 in 1.8 mi ENE 13.8 mph 21.9 mph 0.00 in Snow Light Snow
3:48 AM 24.8 °F 12.4 °F 19.4 °F 80% 29.93 in 0.8 mi East 15.0 mph 21.9 mph 0.00 in Snow Light Snow
3:53 AM 24.1 °F 11.0 °F 19.9 °F 84% 29.98 in 1.5 mi East 16.1 mph 21.9 mph 0.00 in Snow Light Snow
4:00 AM 24.8 °F 14.0 °F 19.4 °F 80% 29.93 in 1.2 mi East 11.5 mph 21.9 mph 0.00 in Snow Light Snow
4:28 AM 24.8 °F 14.0 °F 19.4 °F 80% 29.94 in 0.8 mi East 11.5 mph 19.6 mph 0.00 in Snow Light Snow
4:53 AM 23.0 °F 12.4 °F 19.4 °F 86% 29.92 in 0.8 mi East 10.4 mph 18.4 mph N/A Snow Light Snow
5:14 AM 23.0 °F 11.7 °F 19.4 °F 86% 29.92 in 0.8 mi ENE 11.5 mph 18.4 mph 0.00 in Snow Light Snow
5:29 AM 23.0 °F 11.7 °F 19.4 °F 86% 29.92 in 0.5 mi East 11.5 mph - 0.00 in Fog , Snow Snow
5:53 AM 23.0 °F 10.6 °F 19.0 °F 85% 29.95 in 0.5 mi ENE 13.8 mph 19.6 mph 0.00 in Fog , Snow Snow
6:53 AM 21.9 °F 11.7 °F 19.0 °F 89% 29.96 in 0.5 mi ENE 9.2 mph - 0.00 in Fog , Snow Snow
7:53 AM 21.0 °F 9.9 °F 18.0 °F 88% 29.93 in 0.5 mi ENE 10.4 mph 18.4 mph 0.00 in Fog , Snow Snow
8:08 AM 21.2 °F 8.9 °F 17.6 °F 86% 29.89 in 0.2 mi ENE 12.7 mph - 0.00 in Fog , Snow Heavy Snow
8:53 AM 21.0 °F 11.4 °F 18.0 °F 88% 29.91 in 0.2 mi NE 8.1 mph - 0.00 in Fog , Snow Snow
9:02 AM 21.2 °F 10.1 °F 17.6 °F 86% 29.86 in 0.5 mi NE 10.4 mph - 0.00 in Fog , Snow Snow
9:19 AM 21.2 °F 9.5 °F 17.6 °F 86% 29.86 in 0.8 mi NE 11.5 mph - 0.00 in Snow Light Snow
9:53 AM 21.0 °F 9.9 °F 17.1 °F 85% 29.91 in 0.5 mi NNE 10.4 mph - 0.00 in Fog , Snow Snow
10:05 AM 21.2 °F 10.1 °F 17.6 °F 86% 29.86 in 0.5 mi NNE 10.4 mph 19.6 mph 0.00 in Fog , Snow Snow
10:53 AM 21.9 °F 9.8 °F 17.1 °F 82% 29.91 in 0.5 mi NNE 12.7 mph - 0.00 in Snow Snow
11:43 AM 21.2 °F 8.3 °F 17.6 °F 86% 29.83 in 0.2 mi NNE 13.8 mph - 0.00 in Fog , Snow Light Snow
11:53 AM 21.9 °F 8.7 °F 17.1 °F 82% 29.87 in 0.5 mi NE 15.0 mph - 0.00 in Snow Snow
12:02 PM 21.2 °F 8.3 °F 17.6 °F 86% 29.81 in 0.5 mi NE 13.8 mph - 0.00 in Fog , Snow Light Snow
12:11 PM 21.2 °F 7.8 °F 17.6 °F 86% 29.80 in 0.8 mi NE 15.0 mph - 0.00 in Snow Light Snow
12:21 PM 21.2 °F 9.5 °F 17.6 °F 86% 29.79 in 0.8 mi NNE 11.5 mph 20.7 mph 0.00 in Snow Light Snow
12:27 PM 21.2 °F 8.3 °F 17.6 °F 86% 29.80 in 1.0 mi NE 13.8 mph 20.7 mph 0.00 in Snow Light Snow
12:53 PM 21.9 °F 8.7 °F 17.1 °F 82% 29.84 in 1.0 mi NE 15.0 mph - 0.00 in Snow Light Snow
1:08 PM 21.2 °F 8.9 °F 17.6 °F 86% 29.80 in 0.8 mi NE 12.7 mph 19.6 mph 0.00 in Snow Light Snow
1:29 PM 21.2 °F 9.5 °F 17.6 °F 86% 29.80 in 1.0 mi NNE 11.5 mph - 0.00 in Snow Light Snow
1:36 PM 21.2 °F 10.9 °F 17.6 °F 86% 29.79 in 2.0 mi NE 9.2 mph - 0.00 in Snow Light Snow
1:44 PM 21.2 °F 10.9 °F 17.6 °F 86% 29.79 in 4.0 mi NNE 9.2 mph - 0.00 in Snow Light Snow
1:53 PM 21.9 °F 11.0 °F 17.1 °F 82% 29.84 in 6.0 mi NNE 10.4 mph - 0.00 in   Haze
2:17 PM 21.2 °F 10.1 °F 17.6 °F 86% 29.78 in 2.0 mi NE 10.4 mph - 0.00 in Snow Light Snow
2:49 PM 21.2 °F 9.5 °F 17.6 °F 86% 29.77 in 1.8 mi NNE 11.5 mph - 0.00 in Snow Light Snow
2:53 PM 21.9 °F 10.4 °F 18.0 °F 85% 29.81 in 1.2 mi NNE 11.5 mph - 0.00 in Snow Light Snow
3:05 PM 21.2 °F 8.9 °F 17.6 °F 86% 29.76 in 0.8 mi NNE 12.7 mph - 0.00 in Snow Light Snow
3:23 PM 23.0 °F 13.1 °F 19.4 °F 86% 29.76 in 0.2 mi NNE 9.2 mph - N/A Fog , Snow Heavy Snow
3:33 PM 23.0 °F 13.1 °F 19.4 °F 86% 29.76 in 0.2 mi NNE 9.2 mph - 0.00 in Fog , Snow Heavy Snow
3:53 PM 23.0 °F 14.7 °F 19.0 °F 85% 29.80 in 0.5 mi NNE 6.9 mph - 0.00 in Fog , Snow Snow
4:06 PM 23.0 °F 12.4 °F 19.4 °F 86% 29.75 in 0.8 mi NNE 10.4 mph - 0.00 in Snow Light Snow
4:53 PM 21.9 °F 11.0 °F 19.0 °F 89% 29.81 in 1.0 mi North 10.4 mph - 0.00 in Snow Light Snow
5:06 PM 21.2 °F 10.1 °F 19.4 °F 93% 29.77 in 1.5 mi NNW 10.4 mph - 0.00 in Snow Light Snow
5:13 PM 21.2 °F 10.9 °F 19.4 °F 93% 29.77 in 1.8 mi NNW 9.2 mph - 0.00 in Snow Light Snow
5:35 PM 21.2 °F 9.5 °F 17.6 °F 86% 29.78 in 0.5 mi NW 11.5 mph - 0.00 in Fog , Snow Snow
5:53 PM 21.9 °F 10.4 °F 19.0 °F 89% 29.83 in 0.5 mi NW 11.5 mph - 0.00 in Fog , Snow Snow
6:20 PM 21.2 °F 8.9 °F 17.6 °F 86% 29.79 in 1.0 mi NW 12.7 mph - 0.00 in Snow Light Snow
6:31 PM 21.2 °F 8.9 °F 17.6 °F 86% 29.79 in 2.5 mi NW 12.7 mph - 0.00 in Snow Light Snow
6:53 PM 21.9 °F 9.8 °F 18.0 °F 85% 29.85 in 1.8 mi NW 12.7 mph - 0.00 in Snow Light Snow
7:20 PM 21.2 °F 10.1 °F 17.6 °F 86% 29.81 in 1.8 mi NW 10.4 mph - 0.00 in Snow Light Snow
7:27 PM 21.2 °F 9.5 °F 17.6 °F 86% 29.81 in 2.0 mi NW 11.5 mph - 0.00 in Snow Light Snow
7:43 PM 21.2 °F 9.5 °F 17.6 °F 86% 29.81 in 3.0 mi NW 11.5 mph - 0.00 in Snow Light Snow
7:53 PM 21.0 °F 9.3 °F 18.0 °F 88% 29.86 in 3.0 mi NW 11.5 mph - 0.00 in Snow Light Snow
8:53 PM 17.1 °F 4.3 °F 14.0 °F 88% 29.88 in 6.0 mi WNW 11.5 mph - 0.00 in Snow Light Snow
9:53 PM 18.0 °F 4.8 °F 15.1 °F 88% 29.89 in 9.0 mi WNW 12.7 mph - 0.00 in   Overcast
10:53 PM 18.0 °F 5.4 °F 14.0 °F 84% 29.91 in 9.0 mi WNW 11.5 mph - N/A   Overcast
11:17 PM 15.8 °F 1.4 °F 12.2 °F 86% 29.87 in 9.0 mi West 13.8 mph - N/A   Scattered Clouds
11:53 PM 14.0 °F -0.8 °F 10.0 °F 84% 29.94 in 10.0 mi West 13.8 mph - N/A   Clear